Flag for U.S.A. Weather past 2 weeks in Gainesville, Florida, U.S.A.

Now
72 °F

Clear.


Feels Like: 68 °F
Forecast: 70 / 88 °F
Wind: 3 mph from Southeast

Location: Gainesville Regional Airport

Current Time: May 26, 2015 at 6:09:58 AM

Latest Report: May 26, 2015 at 5:53 AM


Visibility: 10 mi

Pressure: 30.17 "Hg

Humidity: 93%

Dew point: 70 °F

Location of GainesvilleLocation

Historic Weather in Gainesville — Graph

°F

Gainesville temperature yesterday

Maximum temperature yesterday: 92 °F (at 3:53 PM)
Minimum temperature yesterday: 70 °F (at 4:53 AM)
Average temperature yesterday: 79 °F

Past Weeks' High & Low Weather Summary

 TemperatureHumidityPressure
High92 °F (May 11, 3:53 PM)97% (May 12, 4:53 AM)30.27 "Hg (May 12, 4:53 AM)
Low63 °F (May 11, 6:53 AM)34% (May 11, 2:53 PM)29.89 "Hg (May 21, 5:53 PM)
Average77 °F75%30.13 "Hg
* Reported May 11 4:53 AM — May 26 4:53 AM, Gainesville, Weather by CustomWeather, © 2015

Note: Actual official high and low records may vary slightly from our data, if they occured in-between our weather recording intervals... More about our weather records

Advertising

Gainesville weather history for previous 24 hours

 ConditionsComfort  
Time TempWeatherWind HumidityBarometerVisibility
4:53 AM
Tue, May 26
71 °FClear.5 mph96%30.16 "Hg9 mi
3:53 AM72 °FClear.6 mph93%30.16 "Hg9 mi
2:53 AM72 °FPassing clouds.3 mph93%30.17 "Hg10 mi
1:53 AM73 °FClear.6 mph90%30.18 "Hg10 mi
12:53 AM73 °FClear.8 mph90%30.18 "Hg10 mi
11:53 PM
Mon, May 25
74 °FClear.8 mph88%30.19 "Hg10 mi
10:53 PM76 °FClear.7 mph82%30.20 "Hg10 mi
9:53 PM77 °FClear.9 mph77%30.17 "Hg10 mi
8:53 PM79 °FSunny.15 mph69%30.15 "Hg10 mi
7:53 PM82 °FPassing clouds.10 mph63%30.15 "Hg10 mi
6:53 PM85 °FPartly sunny.12 mph55%30.13 "Hg10 mi
5:53 PM88 °FScattered clouds.10 mph50%30.12 "Hg10 mi
4:53 PM90 °FPassing clouds.14 mph50%30.12 "Hg10 mi
3:53 PM92 °FSunny.8 mph38%30.14 "Hg10 mi
2:53 PM91 °FSunny.9 mph42%30.16 "Hg10 mi
1:53 PM90 °FSunny.12 mph41%30.18 "Hg10 mi
12:53 PM89 °FSunny.8 mph43%30.19 "Hg10 mi
11:53 AM86 °FSunny.9 mph55%30.21 "Hg10 mi
10:53 AM83 °FSunny.12 mph61%30.22 "Hg10 mi
10:00 AM82 °FSunny.10 mph63%30.23 "Hg10 mi
8:53 AM75 °FSunny.12 mph90%30.22 "Hg10 mi
7:53 AM72 °FFog.6 mph97%30.20 "Hg6 mi
6:58 AM70 °FFog.No wind97%30.20 "Hg1 mi
6:03 AM70 °FFog.No wind97%30.19 "Hg1 mi
Weather by CustomWeather, © 2015

See weather overviewHow to use our weather pages